Year,Month,Day,Hour,Minute,Value (Times are PST for temperature in C)
2016,06,19,00,00,5.90
2016,06,19,00,01,6.10
2016,06,19,00,02,6.10
2016,06,19,00,03,6.10
2016,06,19,00,04,6.10
2016,06,19,00,05,6.10
2016,06,19,00,06,6.10
2016,06,19,00,07,6.10
2016,06,19,00,08,6.10
2016,06,19,00,09,6.10
2016,06,19,00,10,6.10
2016,06,19,00,11,6.10
2016,06,19,00,12,6.00
2016,06,19,00,13,6.00
2016,06,19,00,14,6.00
2016,06,19,00,15,6.00
2016,06,19,00,16,6.00
2016,06,19,00,17,6.00
2016,06,19,00,18,6.00
2016,06,19,00,19,6.00
2016,06,19,00,20,6.00
2016,06,19,00,21,5.80
2016,06,19,00,22,5.80
2016,06,19,00,23,5.80
2016,06,19,00,24,5.80
2016,06,19,00,25,5.80
2016,06,19,00,26,5.80
2016,06,19,00,27,5.80
2016,06,19,00,28,5.80
2016,06,19,00,29,5.80
2016,06,19,00,30,5.80
2016,06,19,00,31,5.80
2016,06,19,00,32,5.70
2016,06,19,00,33,5.70
2016,06,19,00,34,5.70
2016,06,19,00,35,5.70
2016,06,19,00,36,5.70
2016,06,19,00,37,5.70
2016,06,19,00,38,5.70
2016,06,19,00,39,5.70
2016,06,19,00,40,5.70
2016,06,19,00,41,5.70
2016,06,19,00,42,5.90
2016,06,19,00,43,5.90
2016,06,19,00,44,5.90
2016,06,19,00,45,5.90
2016,06,19,00,46,5.90
2016,06,19,00,47,5.90
2016,06,19,00,48,5.90
2016,06,19,00,49,5.90
2016,06,19,00,50,5.90
2016,06,19,00,51,5.90
2016,06,19,00,52,5.90
2016,06,19,00,53,5.70
2016,06,19,00,54,5.70
2016,06,19,00,55,5.70
2016,06,19,00,56,5.70
2016,06,19,00,57,5.70
2016,06,19,00,58,5.70
2016,06,19,00,59,5.70
2016,06,19,01,00,5.70
2016,06,19,01,01,5.70
2016,06,19,01,02,5.70
2016,06,19,01,03,5.70
2016,06,19,01,04,5.70
2016,06,19,01,05,5.70
2016,06,19,01,06,5.70
2016,06,19,01,07,5.70
2016,06,19,01,08,5.70
2016,06,19,01,09,5.70
2016,06,19,01,10,5.70
2016,06,19,01,11,5.70
2016,06,19,01,12,5.70
2016,06,19,01,13,5.70
2016,06,19,01,14,5.70
2016,06,19,01,15,5.70
2016,06,19,01,16,5.70
2016,06,19,01,17,5.70
2016,06,19,01,18,5.70
2016,06,19,01,19,5.70
2016,06,19,01,20,5.70
2016,06,19,01,21,5.70
2016,06,19,01,22,5.70
2016,06,19,01,23,5.70
2016,06,19,01,24,5.70
2016,06,19,01,25,5.70
2016,06,19,01,26,5.70
2016,06,19,01,27,5.70
2016,06,19,01,28,5.70
2016,06,19,01,29,5.70
2016,06,19,01,30,5.70
2016,06,19,01,31,5.80
2016,06,19,01,32,5.80
2016,06,19,01,33,5.80
2016,06,19,01,34,5.80
2016,06,19,01,35,5.80
2016,06,19,01,36,5.80
2016,06,19,01,37,5.80
2016,06,19,01,38,5.80
2016,06,19,01,39,5.80
2016,06,19,01,40,5.80
2016,06,19,01,41,5.80
2016,06,19,01,42,5.80
2016,06,19,01,43,5.80
2016,06,19,01,44,5.80
2016,06,19,01,45,5.80
2016,06,19,01,46,5.80
2016,06,19,01,47,5.80
2016,06,19,01,48,5.80
2016,06,19,01,49,5.80
2016,06,19,01,50,5.80
2016,06,19,01,51,5.70
2016,06,19,01,52,5.70
2016,06,19,01,53,5.70
2016,06,19,01,54,5.70
2016,06,19,01,55,5.70
2016,06,19,01,56,5.70
2016,06,19,01,57,5.70
2016,06,19,01,58,5.70
2016,06,19,01,59,5.70
2016,06,19,02,00,5.70
2016,06,19,02,01,5.80
2016,06,19,02,02,5.80
2016,06,19,02,03,5.80
2016,06,19,02,04,5.80
2016,06,19,02,05,5.80
2016,06,19,02,06,5.80
2016,06,19,02,07,5.80
2016,06,19,02,08,5.80
2016,06,19,02,09,5.80
2016,06,19,02,10,5.80
2016,06,19,02,11,5.80
2016,06,19,02,12,5.80
2016,06,19,02,13,5.80
2016,06,19,02,14,5.80
2016,06,19,02,15,5.80
2016,06,19,02,16,5.80
2016,06,19,02,17,5.80
2016,06,19,02,18,5.80
2016,06,19,02,19,5.80
2016,06,19,02,20,5.80
2016,06,19,02,21,5.80
2016,06,19,02,22,5.80
2016,06,19,02,23,5.80
2016,06,19,02,24,5.80
2016,06,19,02,25,5.80
2016,06,19,02,26,5.80
2016,06,19,02,27,5.80
2016,06,19,02,28,5.80
2016,06,19,02,29,5.80
2016,06,19,02,30,5.80
2016,06,19,02,31,5.90
2016,06,19,02,32,5.90
2016,06,19,02,33,5.90
2016,06,19,02,34,5.90
2016,06,19,02,35,5.90
2016,06,19,02,36,5.90
2016,06,19,02,37,5.90
2016,06,19,02,38,5.90
2016,06,19,02,39,5.90
2016,06,19,02,40,5.90
2016,06,19,02,41,5.90
2016,06,19,02,42,5.80
2016,06,19,02,43,5.80
2016,06,19,02,44,5.80
2016,06,19,02,45,5.80
2016,06,19,02,46,5.80
2016,06,19,02,47,5.80
2016,06,19,02,48,5.80
2016,06,19,02,49,5.80
2016,06,19,02,50,5.80
2016,06,19,02,51,5.70
2016,06,19,02,52,5.70
2016,06,19,02,53,5.70
2016,06,19,02,54,5.70
2016,06,19,02,55,5.70
2016,06,19,02,56,5.70
2016,06,19,02,57,5.70
2016,06,19,02,58,5.70
2016,06,19,02,59,5.70
2016,06,19,03,00,5.70
2016,06,19,03,01,5.70
2016,06,19,03,02,5.80
2016,06,19,03,03,5.80
2016,06,19,03,04,5.80
2016,06,19,03,05,5.80
2016,06,19,03,06,5.80
2016,06,19,03,07,5.80
2016,06,19,03,08,5.80
2016,06,19,03,09,5.80
2016,06,19,03,10,5.80
2016,06,19,03,11,5.80
2016,06,19,03,12,5.80
2016,06,19,03,13,5.80
2016,06,19,03,14,5.80
2016,06,19,03,15,5.80
2016,06,19,03,16,5.80
2016,06,19,03,17,5.80
2016,06,19,03,18,5.80
2016,06,19,03,19,5.80
2016,06,19,03,20,5.80
2016,06,19,03,21,5.70
2016,06,19,03,22,5.70
2016,06,19,03,23,5.70
2016,06,19,03,24,5.70
2016,06,19,03,25,5.70
2016,06,19,03,26,5.70
2016,06,19,03,27,5.70
2016,06,19,03,28,5.70
2016,06,19,03,29,5.70
2016,06,19,03,30,5.70
2016,06,19,03,31,5.60
2016,06,19,03,32,5.60
2016,06,19,03,33,5.60
2016,06,19,03,34,5.60
2016,06,19,03,35,5.60
2016,06,19,03,36,5.60
2016,06,19,03,37,5.60
2016,06,19,03,38,5.60
2016,06,19,03,39,5.60
2016,06,19,03,40,5.60
2016,06,19,03,41,5.60
2016,06,19,03,42,5.60
2016,06,19,03,43,5.60
2016,06,19,03,44,5.60
2016,06,19,03,45,5.60
2016,06,19,03,46,5.60
2016,06,19,03,47,5.60
2016,06,19,03,48,5.60
2016,06,19,03,49,5.60
2016,06,19,03,50,5.60
2016,06,19,03,51,5.60
2016,06,19,03,52,5.60
2016,06,19,03,53,5.60
2016,06,19,03,54,5.60
2016,06,19,03,55,5.60
2016,06,19,03,56,5.60
2016,06,19,03,57,5.60
2016,06,19,03,58,5.60
2016,06,19,03,59,5.60
2016,06,19,04,00,5.60
2016,06,19,04,01,5.60
2016,06,19,04,02,5.60
2016,06,19,04,03,5.60
2016,06,19,04,04,5.60
2016,06,19,04,05,5.60
2016,06,19,04,06,5.60
2016,06,19,04,07,5.60
2016,06,19,04,08,5.60
2016,06,19,04,09,5.60
2016,06,19,04,10,5.60
2016,06,19,04,11,5.60
2016,06,19,04,12,5.60
2016,06,19,04,13,5.60
2016,06,19,04,14,5.60
2016,06,19,04,15,5.60
2016,06,19,04,16,5.60
2016,06,19,04,17,5.60
2016,06,19,04,18,5.60
2016,06,19,04,19,5.60
2016,06,19,04,20,5.60
2016,06,19,04,21,5.60
2016,06,19,04,22,5.60
2016,06,19,04,23,5.60
2016,06,19,04,24,5.60
2016,06,19,04,25,5.60
2016,06,19,04,26,5.60
2016,06,19,04,27,5.60
2016,06,19,04,28,5.60
2016,06,19,04,29,5.60
2016,06,19,04,30,5.60
2016,06,19,04,31,5.60
2016,06,19,04,32,5.60
2016,06,19,04,33,5.60
2016,06,19,04,34,5.60
2016,06,19,04,35,5.60
2016,06,19,04,36,5.60
2016,06,19,04,37,5.60
2016,06,19,04,38,5.60
2016,06,19,04,39,5.60
2016,06,19,04,40,5.60
2016,06,19,04,41,5.70
2016,06,19,04,42,5.70
2016,06,19,04,43,5.70
2016,06,19,04,44,5.70
2016,06,19,04,45,5.70
2016,06,19,04,46,5.70
2016,06,19,04,47,5.70
2016,06,19,04,48,5.70
2016,06,19,04,49,5.70
2016,06,19,04,50,5.70
2016,06,19,04,51,5.70
2016,06,19,04,52,5.80
2016,06,19,04,53,5.80
2016,06,19,04,54,5.80
2016,06,19,04,55,5.80
2016,06,19,04,56,5.80
2016,06,19,04,57,5.80
2016,06,19,04,58,5.80
2016,06,19,04,59,5.80
2016,06,19,05,00,5.80
2016,06,19,05,01,5.80
2016,06,19,05,02,5.80
2016,06,19,05,03,5.80
2016,06,19,05,04,5.80
2016,06,19,05,05,5.80
2016,06,19,05,06,5.80
2016,06,19,05,07,5.80
2016,06,19,05,08,5.80
2016,06,19,05,09,5.80
2016,06,19,05,10,5.80
2016,06,19,05,11,5.70
2016,06,19,05,12,5.70
2016,06,19,05,13,5.70
2016,06,19,05,14,5.70
2016,06,19,05,15,5.70
2016,06,19,05,16,5.70
2016,06,19,05,17,5.70
2016,06,19,05,18,5.70
2016,06,19,05,19,5.70
2016,06,19,05,20,5.70
2016,06,19,05,21,5.70
2016,06,19,05,22,5.70
2016,06,19,05,23,5.70
2016,06,19,05,24,5.70
2016,06,19,05,25,5.70
2016,06,19,05,26,5.70
2016,06,19,05,27,5.70
2016,06,19,05,28,5.70
2016,06,19,05,29,5.70
2016,06,19,05,30,5.70
2016,06,19,05,31,5.60
2016,06,19,05,32,5.60
2016,06,19,05,33,5.60
2016,06,19,05,34,5.60
2016,06,19,05,35,5.60
2016,06,19,05,36,5.60
2016,06,19,05,37,5.60
2016,06,19,05,38,5.60
2016,06,19,05,39,5.60
2016,06,19,05,40,5.60
2016,06,19,05,41,5.60
2016,06,19,05,42,5.60
2016,06,19,05,43,5.60
2016,06,19,05,44,5.60
2016,06,19,05,45,5.60
2016,06,19,05,46,5.60
2016,06,19,05,47,5.60
2016,06,19,05,48,5.60
2016,06,19,05,49,5.60
2016,06,19,05,50,5.60
2016,06,19,05,51,5.60
2016,06,19,05,52,5.60
2016,06,19,05,53,5.60
2016,06,19,05,54,5.60
2016,06,19,05,55,5.60
2016,06,19,05,56,5.60
2016,06,19,05,57,5.60
2016,06,19,05,58,5.60
2016,06,19,05,59,5.60
2016,06,19,06,00,5.60
2016,06,19,06,01,5.60
2016,06,19,06,02,5.60
2016,06,19,06,03,5.60
2016,06,19,06,04,5.60
2016,06,19,06,05,5.60
2016,06,19,06,06,5.60
2016,06,19,06,07,5.60
2016,06,19,06,08,5.60
2016,06,19,06,09,5.60
2016,06,19,06,10,5.60
2016,06,19,06,11,5.60
2016,06,19,06,12,5.60
2016,06,19,06,13,5.60
2016,06,19,06,14,5.60
2016,06,19,06,15,5.60
2016,06,19,06,16,5.60
2016,06,19,06,17,5.60
2016,06,19,06,18,5.60
2016,06,19,06,19,5.60
2016,06,19,06,20,5.60
2016,06,19,06,21,5.60
2016,06,19,06,22,5.60
2016,06,19,06,23,5.70
2016,06,19,06,24,5.70
2016,06,19,06,25,5.70
2016,06,19,06,26,5.70
2016,06,19,06,27,5.70
2016,06,19,06,28,5.70
2016,06,19,06,29,5.70
2016,06,19,06,30,5.70
2016,06,19,06,31,5.70
2016,06,19,06,32,5.70
2016,06,19,06,33,5.70
2016,06,19,06,34,5.70
2016,06,19,06,35,5.70
2016,06,19,06,36,5.70
2016,06,19,06,37,5.70
2016,06,19,06,38,5.70
2016,06,19,06,39,5.70
2016,06,19,06,40,5.70
2016,06,19,06,41,5.70
2016,06,19,06,42,5.80
2016,06,19,06,43,5.80
2016,06,19,06,44,5.80
2016,06,19,06,45,5.80
2016,06,19,06,46,5.80
2016,06,19,06,47,5.80
2016,06,19,06,48,5.80
2016,06,19,06,49,5.80
2016,06,19,06,50,5.80
2016,06,19,06,51,5.80
2016,06,19,06,52,5.90
2016,06,19,06,53,5.90
2016,06,19,06,54,5.90
2016,06,19,06,55,5.90
2016,06,19,06,56,5.90
2016,06,19,06,57,5.90
2016,06,19,06,58,5.90
2016,06,19,06,59,5.90
2016,06,19,07,00,5.90
2016,06,19,07,01,5.90
2016,06,19,07,02,6.10
2016,06,19,07,03,6.10
2016,06,19,07,04,6.10
2016,06,19,07,05,6.10
2016,06,19,07,06,6.10
2016,06,19,07,07,6.10
2016,06,19,07,08,6.10
2016,06,19,07,09,6.10
2016,06,19,07,10,6.10
2016,06,19,07,11,6.10
2016,06,19,07,12,6.40
2016,06,19,07,13,6.40
2016,06,19,07,14,6.40
2016,06,19,07,15,6.40
2016,06,19,07,16,6.40
2016,06,19,07,17,6.40
2016,06,19,07,18,6.40
2016,06,19,07,19,6.40
2016,06,19,07,20,6.40
2016,06,19,07,21,6.90
2016,06,19,07,22,6.90
2016,06,19,07,23,6.90
2016,06,19,07,24,6.90
2016,06,19,07,25,6.90
2016,06,19,07,26,6.90
2016,06,19,07,27,6.90
2016,06,19,07,28,6.90
2016,06,19,07,29,6.90
2016,06,19,07,30,6.90
2016,06,19,07,31,7.20
2016,06,19,07,32,7.20
2016,06,19,07,33,7.20
2016,06,19,07,34,7.20
2016,06,19,07,35,7.20
2016,06,19,07,36,7.20
2016,06,19,07,37,7.20
2016,06,19,07,38,7.20
2016,06,19,07,39,7.20
2016,06,19,07,40,7.20
2016,06,19,07,41,7.20
2016,06,19,07,42,7.20
2016,06,19,07,43,7.00
2016,06,19,07,44,7.00
2016,06,19,07,45,7.00
2016,06,19,07,46,7.00
2016,06,19,07,47,7.00
2016,06,19,07,48,7.00
2016,06,19,07,49,7.00
2016,06,19,07,50,7.00
2016,06,19,07,51,7.00
2016,06,19,07,52,7.00
2016,06,19,07,53,6.90
2016,06,19,07,54,6.90
2016,06,19,07,55,6.90
2016,06,19,07,56,6.90
2016,06,19,07,57,6.90
2016,06,19,07,58,6.90
2016,06,19,07,59,6.90
2016,06,19,08,00,6.90
2016,06,19,08,01,6.80
2016,06,19,08,02,6.80
2016,06,19,08,03,6.80
2016,06,19,08,04,6.80
2016,06,19,08,05,6.80
2016,06,19,08,06,6.80
2016,06,19,08,07,6.80
2016,06,19,08,08,6.80
2016,06,19,08,09,6.80
2016,06,19,08,10,6.80
2016,06,19,08,11,6.80
2016,06,19,08,12,6.70
2016,06,19,08,13,6.70
2016,06,19,08,14,6.70
2016,06,19,08,15,6.70
2016,06,19,08,16,6.70
2016,06,19,08,17,6.70
2016,06,19,08,18,6.70
2016,06,19,08,19,6.70
2016,06,19,08,20,6.70
2016,06,19,08,21,6.70
2016,06,19,08,22,6.70
2016,06,19,08,23,6.70
2016,06,19,08,24,6.70
2016,06,19,08,25,6.70
2016,06,19,08,26,6.70
2016,06,19,08,27,6.70
2016,06,19,08,28,6.70
2016,06,19,08,29,6.70
2016,06,19,08,30,6.70
2016,06,19,08,31,6.70
2016,06,19,08,32,6.70
2016,06,19,08,33,6.70
2016,06,19,08,34,6.70
2016,06,19,08,35,6.70
2016,06,19,08,36,6.70
2016,06,19,08,37,6.70
2016,06,19,08,38,6.70
2016,06,19,08,39,6.70
2016,06,19,08,40,6.70
2016,06,19,08,41,6.70
2016,06,19,08,42,6.90
2016,06,19,08,43,6.90
2016,06,19,08,44,6.90
2016,06,19,08,45,6.90
2016,06,19,08,46,6.90
2016,06,19,08,47,6.90
2016,06,19,08,48,6.90
2016,06,19,08,49,6.90
2016,06,19,08,50,6.90
2016,06,19,08,51,6.90
2016,06,19,08,52,7.20
2016,06,19,08,53,7.20
2016,06,19,08,54,7.20
2016,06,19,08,55,7.20
2016,06,19,08,56,7.20
2016,06,19,08,57,7.20
2016,06,19,08,58,7.20
2016,06,19,08,59,7.20
2016,06,19,09,00,7.20
2016,06,19,09,01,7.20
2016,06,19,09,02,7.60
2016,06,19,09,03,7.60
2016,06,19,09,04,7.60
2016,06,19,09,05,7.60
2016,06,19,09,06,7.60
2016,06,19,09,07,7.60
2016,06,19,09,08,7.60
2016,06,19,09,09,7.60
2016,06,19,09,10,7.60
2016,06,19,09,11,7.60
2016,06,19,09,12,8.10
2016,06,19,09,13,8.10
2016,06,19,09,14,8.10
2016,06,19,09,15,8.10
2016,06,19,09,16,8.10
2016,06,19,09,17,8.10
2016,06,19,09,18,8.10
2016,06,19,09,19,8.10
2016,06,19,09,20,8.10
2016,06,19,09,21,8.00
2016,06,19,09,22,8.00
2016,06,19,09,23,8.00
2016,06,19,09,24,8.00
2016,06,19,09,25,8.00
2016,06,19,09,26,8.00
2016,06,19,09,27,8.00
2016,06,19,09,28,8.00
2016,06,19,09,29,8.00
2016,06,19,09,30,8.00
2016,06,19,09,31,8.00
2016,06,19,09,32,8.30
2016,06,19,09,33,8.30
2016,06,19,09,34,8.30
2016,06,19,09,35,8.30
2016,06,19,09,36,8.30
2016,06,19,09,37,8.30
2016,06,19,09,38,8.30
2016,06,19,09,39,8.30
2016,06,19,09,40,8.30
2016,06,19,09,41,8.80
2016,06,19,09,42,8.80
2016,06,19,09,43,8.80
2016,06,19,09,44,8.80
2016,06,19,09,45,8.80
2016,06,19,09,46,8.80
2016,06,19,09,47,8.80
2016,06,19,09,48,8.80
2016,06,19,09,49,8.80
2016,06,19,09,50,8.80
2016,06,19,09,51,9.10
2016,06,19,09,52,9.10
2016,06,19,09,53,9.10
2016,06,19,09,54,9.10
2016,06,19,09,55,9.10
2016,06,19,09,56,9.10
2016,06,19,09,57,9.10
2016,06,19,09,58,9.10
2016,06,19,09,59,9.10
2016,06,19,10,00,9.10
2016,06,19,10,01,9.00
2016,06,19,10,02,9.00
2016,06,19,10,03,9.00
2016,06,19,10,04,9.00
2016,06,19,10,05,9.00
2016,06,19,10,06,9.00
2016,06,19,10,07,9.00
2016,06,19,10,08,9.00
2016,06,19,10,09,9.00
2016,06,19,10,10,9.00
2016,06,19,10,11,8.50
2016,06,19,10,12,8.50
2016,06,19,10,13,8.50
2016,06,19,10,14,8.50
2016,06,19,10,15,8.50
2016,06,19,10,16,8.50
2016,06,19,10,17,8.50
2016,06,19,10,18,8.50
2016,06,19,10,19,8.50
2016,06,19,10,20,8.50
2016,06,19,10,21,8.50
2016,06,19,10,22,8.30
2016,06,19,10,23,8.30
2016,06,19,10,24,8.30
2016,06,19,10,25,8.30
2016,06,19,10,26,8.30
2016,06,19,10,27,8.30
2016,06,19,10,28,8.30
2016,06,19,10,29,8.30
2016,06,19,10,30,8.30
2016,06,19,10,31,8.30
2016,06,19,10,32,8.30
2016,06,19,10,33,8.30
2016,06,19,10,34,8.30
2016,06,19,10,35,8.30
2016,06,19,10,36,8.30
2016,06,19,10,37,8.30
2016,06,19,10,38,8.30
2016,06,19,10,39,8.30
2016,06,19,10,40,8.30
2016,06,19,10,41,8.30
2016,06,19,10,42,8.40
2016,06,19,10,43,8.40
2016,06,19,10,44,8.40
2016,06,19,10,45,8.40
2016,06,19,10,46,8.40
2016,06,19,10,47,8.40
2016,06,19,10,48,8.40
2016,06,19,10,49,8.40
2016,06,19,10,50,8.40
2016,06,19,10,51,8.40
2016,06,19,10,52,8.40
2016,06,19,10,53,8.40
2016,06,19,10,54,8.40
2016,06,19,10,55,8.40
2016,06,19,10,56,8.40
2016,06,19,10,57,8.40
2016,06,19,10,58,8.40
2016,06,19,10,59,8.40
2016,06,19,11,00,8.40
2016,06,19,11,01,8.30
2016,06,19,11,02,8.30
2016,06,19,11,03,8.30
2016,06,19,11,04,8.30
2016,06,19,11,05,8.30
2016,06,19,11,06,8.30
2016,06,19,11,07,8.30
2016,06,19,11,08,8.30
2016,06,19,11,09,8.30
2016,06,19,11,10,8.30
2016,06,19,11,11,8.40
2016,06,19,11,12,8.40
2016,06,19,11,13,8.40
2016,06,19,11,14,8.40
2016,06,19,11,15,8.40
2016,06,19,11,16,8.40
2016,06,19,11,17,8.40
2016,06,19,11,18,8.40
2016,06,19,11,19,8.40
2016,06,19,11,20,8.40
2016,06,19,11,21,8.40
2016,06,19,11,22,8.20
2016,06,19,11,23,8.20
2016,06,19,11,24,8.20
2016,06,19,11,25,8.20
2016,06,19,11,26,8.20
2016,06,19,11,27,8.20
2016,06,19,11,28,8.20
2016,06,19,11,29,8.20
2016,06,19,11,30,8.20
2016,06,19,11,31,8.20
2016,06,19,11,32,8.20
2016,06,19,11,33,8.20
2016,06,19,11,34,8.20
2016,06,19,11,35,8.20
2016,06,19,11,36,8.20
2016,06,19,11,37,8.20
2016,06,19,11,38,8.20
2016,06,19,11,39,8.20
2016,06,19,11,40,8.20
2016,06,19,11,41,8.20
2016,06,19,11,42,8.20
2016,06,19,11,43,8.20
2016,06,19,11,44,8.20
2016,06,19,11,45,8.20
2016,06,19,11,46,8.20
2016,06,19,11,47,8.20
2016,06,19,11,48,8.20
2016,06,19,11,49,8.20
2016,06,19,11,50,8.20
2016,06,19,11,51,8.60
2016,06,19,11,52,8.60
2016,06,19,11,53,8.60
2016,06,19,11,54,8.60
2016,06,19,11,55,8.60
2016,06,19,11,56,8.60
2016,06,19,11,57,8.60
2016,06,19,11,58,8.60
2016,06,19,11,59,8.60
2016,06,19,12,00,8.60
2016,06,19,12,01,8.60
2016,06,19,12,02,8.50
2016,06,19,12,03,8.50
2016,06,19,12,04,8.50
2016,06,19,12,05,8.50
2016,06,19,12,06,8.50
2016,06,19,12,07,8.50
2016,06,19,12,08,8.50
2016,06,19,12,09,8.50
2016,06,19,12,10,8.50
2016,06,19,12,11,8.50
2016,06,19,12,12,8.50
2016,06,19,12,13,8.10
2016,06,19,12,14,8.10
2016,06,19,12,15,8.10
2016,06,19,12,16,8.10
2016,06,19,12,17,8.10
2016,06,19,12,18,8.10
2016,06,19,12,19,8.10
2016,06,19,12,20,8.10
2016,06,19,12,21,8.10
2016,06,19,12,22,8.10
2016,06,19,12,23,8.10
2016,06,19,12,24,8.10
2016,06,19,12,25,8.10
2016,06,19,12,26,8.10
2016,06,19,12,27,8.10
2016,06,19,12,28,8.10
2016,06,19,12,29,8.10
2016,06,19,12,30,8.10
2016,06,19,12,31,8.10
2016,06,19,12,32,8.20
2016,06,19,12,33,8.20
2016,06,19,12,34,8.20
2016,06,19,12,35,8.20
2016,06,19,12,36,8.20
2016,06,19,12,37,8.20
2016,06,19,12,38,8.20
2016,06,19,12,39,8.20
2016,06,19,12,40,8.20
2016,06,19,12,41,8.20
2016,06,19,12,42,8.30
2016,06,19,12,43,8.30
2016,06,19,12,44,8.30
2016,06,19,12,45,8.30
2016,06,19,12,46,8.30
2016,06,19,12,47,8.30
2016,06,19,12,48,8.30
2016,06,19,12,49,8.30
2016,06,19,12,50,8.30
2016,06,19,12,51,8.30
2016,06,19,12,52,8.60
2016,06,19,12,53,8.60
2016,06,19,12,54,8.60
2016,06,19,12,55,8.60
2016,06,19,12,56,8.60
2016,06,19,12,57,8.60
2016,06,19,12,58,8.60
2016,06,19,12,59,8.60
2016,06,19,13,00,8.60
2016,06,19,13,01,8.60
2016,06,19,13,02,8.70
2016,06,19,13,03,8.70
2016,06,19,13,04,8.70
2016,06,19,13,05,8.70
2016,06,19,13,06,8.70
2016,06,19,13,07,8.70
2016,06,19,13,08,8.70
2016,06,19,13,09,8.70
2016,06,19,13,10,8.70
2016,06,19,13,11,8.60
2016,06,19,13,12,8.60
2016,06,19,13,13,8.60
2016,06,19,13,14,8.60
2016,06,19,13,15,8.60
2016,06,19,13,16,8.60
2016,06,19,13,17,8.60
2016,06,19,13,18,8.60
2016,06,19,13,19,8.60
2016,06,19,13,20,8.60
2016,06,19,13,21,8.60
2016,06,19,13,22,8.60
2016,06,19,13,23,8.60
2016,06,19,13,24,8.60
2016,06,19,13,25,8.60
2016,06,19,13,26,8.60
2016,06,19,13,27,8.60
2016,06,19,13,28,8.60
2016,06,19,13,29,8.60
2016,06,19,13,30,8.60
2016,06,19,13,31,8.60
2016,06,19,13,32,8.60
2016,06,19,13,33,8.70
2016,06,19,13,34,8.70
2016,06,19,13,35,8.70
2016,06,19,13,36,8.70
2016,06,19,13,37,8.70
2016,06,19,13,38,8.70
2016,06,19,13,39,8.70
2016,06,19,13,40,8.70
2016,06,19,13,41,8.80
2016,06,19,13,42,8.80
2016,06,19,13,43,8.80
2016,06,19,13,44,8.80
2016,06,19,13,45,8.80
2016,06,19,13,46,8.80
2016,06,19,13,47,8.80
2016,06,19,13,48,8.80
2016,06,19,13,49,8.80
2016,06,19,13,50,8.80
2016,06,19,13,51,8.80
2016,06,19,13,52,8.70
2016,06,19,13,53,8.70
2016,06,19,13,54,8.70
2016,06,19,13,55,8.70
2016,06,19,13,56,8.70
2016,06,19,13,57,8.70
2016,06,19,13,58,8.70
2016,06,19,13,59,8.70
2016,06,19,14,00,8.70
2016,06,19,14,01,8.80
2016,06,19,14,02,8.80
2016,06,19,14,03,8.80
2016,06,19,14,04,8.80
2016,06,19,14,05,8.80
2016,06,19,14,06,8.80
2016,06,19,14,07,8.80
2016,06,19,14,08,8.80
2016,06,19,14,09,8.80
2016,06,19,14,10,8.80
2016,06,19,14,11,8.80
2016,06,19,14,12,8.80
2016,06,19,14,13,8.80
2016,06,19,14,14,8.80
2016,06,19,14,15,8.80
2016,06,19,14,16,8.80
2016,06,19,14,17,8.80
2016,06,19,14,18,8.80
2016,06,19,14,19,8.80
2016,06,19,14,20,8.80
2016,06,19,14,21,8.80
2016,06,19,14,22,8.80
2016,06,19,14,23,8.90
2016,06,19,14,24,8.90
2016,06,19,14,25,8.90
2016,06,19,14,26,8.90
2016,06,19,14,27,8.90
2016,06,19,14,28,8.90
2016,06,19,14,29,8.90
2016,06,19,14,30,8.90
2016,06,19,14,31,8.80
2016,06,19,14,32,8.80
2016,06,19,14,33,8.80
2016,06,19,14,34,8.80
2016,06,19,14,35,8.80
2016,06,19,14,36,8.80
2016,06,19,14,37,8.80
2016,06,19,14,38,8.80
2016,06,19,14,39,8.80
2016,06,19,14,40,8.80
2016,06,19,14,41,8.80
2016,06,19,14,42,8.80
2016,06,19,14,43,8.80
2016,06,19,14,44,8.80
2016,06,19,14,45,8.80
2016,06,19,14,46,8.80
2016,06,19,14,47,8.80
2016,06,19,14,48,8.80
2016,06,19,14,49,8.80
2016,06,19,14,50,8.80
2016,06,19,14,51,8.70
2016,06,19,14,52,8.70
2016,06,19,14,53,8.70
2016,06,19,14,54,8.70
2016,06,19,14,55,8.70
2016,06,19,14,56,8.70
2016,06,19,14,57,8.70
2016,06,19,14,58,8.70
2016,06,19,14,59,8.70
2016,06,19,15,00,8.70
2016,06,19,15,01,8.70
2016,06,19,15,02,8.70
2016,06,19,15,03,8.70
2016,06,19,15,04,8.70
2016,06,19,15,05,8.70
2016,06,19,15,06,8.70
2016,06,19,15,07,8.70
2016,06,19,15,08,8.70
2016,06,19,15,09,8.70
2016,06,19,15,10,8.70
2016,06,19,15,11,9.00
2016,06,19,15,12,9.00
2016,06,19,15,13,9.00
2016,06,19,15,14,9.00
2016,06,19,15,15,9.00
2016,06,19,15,16,9.00
2016,06,19,15,17,9.00
2016,06,19,15,18,9.00
2016,06,19,15,19,9.00
2016,06,19,15,20,9.00
2016,06,19,15,21,9.40
2016,06,19,15,22,9.40
2016,06,19,15,23,9.40
2016,06,19,15,24,9.40
2016,06,19,15,25,9.40
2016,06,19,15,26,9.40
2016,06,19,15,27,9.40
2016,06,19,15,28,9.40
2016,06,19,15,29,9.40
2016,06,19,15,30,9.40
2016,06,19,15,31,9.30
2016,06,19,15,32,9.30
2016,06,19,15,33,9.30
2016,06,19,15,34,9.30
2016,06,19,15,35,9.30
2016,06,19,15,36,9.30
2016,06,19,15,37,9.30
2016,06,19,15,38,9.30
2016,06,19,15,39,9.30
2016,06,19,15,40,9.30
2016,06,19,15,41,9.20
2016,06,19,15,42,9.20
2016,06,19,15,43,9.20
2016,06,19,15,44,9.20
2016,06,19,15,45,9.20
2016,06,19,15,46,9.20
2016,06,19,15,47,9.20
2016,06,19,15,48,9.20
2016,06,19,15,49,9.20
2016,06,19,15,50,9.20
2016,06,19,15,51,9.20
2016,06,19,15,52,9.20
2016,06,19,15,53,9.20
2016,06,19,15,54,9.20
2016,06,19,15,55,9.20
2016,06,19,15,56,9.20
2016,06,19,15,57,9.20
2016,06,19,15,58,9.20
2016,06,19,15,59,9.20
2016,06,19,16,00,9.20
2016,06,19,16,01,9.10
2016,06,19,16,02,9.10
2016,06,19,16,03,9.10
2016,06,19,16,04,9.10
2016,06,19,16,05,9.10
2016,06,19,16,06,9.10
2016,06,19,16,07,9.10
2016,06,19,16,08,9.10
2016,06,19,16,09,9.10
2016,06,19,16,10,9.10
2016,06,19,16,11,9.20
2016,06,19,16,12,9.20
2016,06,19,16,13,9.20
2016,06,19,16,14,9.20
2016,06,19,16,15,9.20
2016,06,19,16,16,9.20
2016,06,19,16,17,9.20
2016,06,19,16,18,9.20
2016,06,19,16,19,9.20
2016,06,19,16,20,9.20
2016,06,19,16,21,9.20
2016,06,19,16,22,9.50
2016,06,19,16,23,9.50
2016,06,19,16,24,9.50
2016,06,19,16,25,9.50
2016,06,19,16,26,9.50
2016,06,19,16,27,9.50
2016,06,19,16,28,9.50
2016,06,19,16,29,9.50
2016,06,19,16,30,9.50
2016,06,19,16,31,9.50
2016,06,19,16,32,9.70
2016,06,19,16,33,9.70
2016,06,19,16,34,9.70
2016,06,19,16,35,9.70
2016,06,19,16,36,9.70
2016,06,19,16,37,9.70
2016,06,19,16,38,9.70
2016,06,19,16,39,9.70
2016,06,19,16,40,9.70
2016,06,19,16,41,10.10
2016,06,19,16,42,10.10
2016,06,19,16,43,10.10
2016,06,19,16,44,10.10
2016,06,19,16,45,10.10
2016,06,19,16,46,10.10
2016,06,19,16,47,10.10
2016,06,19,16,48,10.10
2016,06,19,16,49,10.10
2016,06,19,16,50,10.10
2016,06,19,16,51,10.30
2016,06,19,16,52,10.30
2016,06,19,16,53,10.30
2016,06,19,16,54,10.30
2016,06,19,16,55,10.30
2016,06,19,16,56,10.30
2016,06,19,16,57,10.30
2016,06,19,16,58,10.30
2016,06,19,16,59,10.30
2016,06,19,17,00,10.30
2016,06,19,17,01,10.70
2016,06,19,17,02,10.70
2016,06,19,17,03,10.70
2016,06,19,17,04,10.70
2016,06,19,17,05,10.70
2016,06,19,17,06,10.70
2016,06,19,17,07,10.70
2016,06,19,17,08,10.70
2016,06,19,17,09,10.70
2016,06,19,17,10,10.70
2016,06,19,17,11,10.70
2016,06,19,17,12,10.80
2016,06,19,17,13,10.80
2016,06,19,17,14,10.80
2016,06,19,17,15,10.80
2016,06,19,17,16,10.80
2016,06,19,17,17,10.80
2016,06,19,17,18,10.80
2016,06,19,17,19,10.80
2016,06,19,17,20,10.80
2016,06,19,17,21,10.70
2016,06,19,17,22,10.70
2016,06,19,17,23,10.70
2016,06,19,17,24,10.70
2016,06,19,17,25,10.70
2016,06,19,17,26,10.70
2016,06,19,17,27,10.70
2016,06,19,17,28,10.70
2016,06,19,17,29,10.70
2016,06,19,17,30,10.70
2016,06,19,17,31,10.50
2016,06,19,17,32,10.50
2016,06,19,17,33,10.50
2016,06,19,17,34,10.50
2016,06,19,17,35,10.50
2016,06,19,17,36,10.50
2016,06,19,17,37,10.50
2016,06,19,17,38,10.50
2016,06,19,17,39,10.50
2016,06,19,17,40,10.50
2016,06,19,17,41,10.50
2016,06,19,17,42,10.50
2016,06,19,17,43,10.50
2016,06,19,17,44,10.50
2016,06,19,17,45,10.50
2016,06,19,17,46,10.50
2016,06,19,17,47,10.50
2016,06,19,17,48,10.50
2016,06,19,17,49,10.50
2016,06,19,17,50,10.50
2016,06,19,17,51,10.20
2016,06,19,17,52,10.20
2016,06,19,17,53,10.20
2016,06,19,17,54,10.20
2016,06,19,17,55,10.20
2016,06,19,17,56,10.20
2016,06,19,17,57,10.20
2016,06,19,17,58,10.20
2016,06,19,17,59,10.20
2016,06,19,18,00,10.20
2016,06,19,18,01,10.30
2016,06,19,18,02,10.30